Year,Month,Day,Hour,Minute,Value (Times are PST for temperature in C)
2008,11,23,00,00,1.90
2008,11,23,00,01,1.90
2008,11,23,00,02,1.90
2008,11,23,00,03,1.90
2008,11,23,00,04,1.90
2008,11,23,00,05,1.90
2008,11,23,00,06,1.90
2008,11,23,00,07,1.90
2008,11,23,00,08,1.90
2008,11,23,00,09,1.90
2008,11,23,00,10,1.90
2008,11,23,00,11,1.90
2008,11,23,00,12,1.90
2008,11,23,00,13,1.90
2008,11,23,00,14,1.80
2008,11,23,00,15,1.90
2008,11,23,00,16,1.90
2008,11,23,00,17,1.90
2008,11,23,00,18,2.00
2008,11,23,00,19,2.00
2008,11,23,00,20,2.00
2008,11,23,00,21,2.00
2008,11,23,00,22,2.00
2008,11,23,00,23,2.10
2008,11,23,00,24,2.10
2008,11,23,00,25,2.10
2008,11,23,00,26,2.00
2008,11,23,00,27,2.00
2008,11,23,00,28,2.00
2008,11,23,00,29,2.00
2008,11,23,00,30,2.00
2008,11,23,00,31,2.00
2008,11,23,00,32,2.00
2008,11,23,00,33,2.00
2008,11,23,00,34,2.00
2008,11,23,00,35,2.10
2008,11,23,00,36,2.10
2008,11,23,00,37,2.10
2008,11,23,00,38,2.10
2008,11,23,00,39,2.10
2008,11,23,00,40,2.10
2008,11,23,00,41,2.10
2008,11,23,00,42,2.10
2008,11,23,00,43,2.10
2008,11,23,00,44,2.10
2008,11,23,00,45,2.10
2008,11,23,00,46,2.10
2008,11,23,00,47,2.10
2008,11,23,00,48,2.10
2008,11,23,00,49,2.10
2008,11,23,00,50,2.10
2008,11,23,00,51,2.20
2008,11,23,00,52,2.20
2008,11,23,00,53,2.20
2008,11,23,00,54,2.30
2008,11,23,00,55,2.30
2008,11,23,00,56,2.30
2008,11,23,00,57,2.30
2008,11,23,00,58,2.40
2008,11,23,00,59,2.40
2008,11,23,01,00,2.40
2008,11,23,01,01,2.40
2008,11,23,01,02,2.40
2008,11,23,01,03,2.40
2008,11,23,01,04,2.40
2008,11,23,01,05,2.40
2008,11,23,01,06,2.40
2008,11,23,01,07,2.40
2008,11,23,01,08,2.50
2008,11,23,01,09,2.50
2008,11,23,01,10,2.50
2008,11,23,01,11,2.60
2008,11,23,01,12,2.60
2008,11,23,01,13,2.60
2008,11,23,01,14,2.70
2008,11,23,01,15,2.70
2008,11,23,01,16,2.70
2008,11,23,01,17,2.70
2008,11,23,01,18,2.70
2008,11,23,01,19,2.70
2008,11,23,01,20,2.70
2008,11,23,01,21,2.70
2008,11,23,01,22,2.70
2008,11,23,01,23,2.70
2008,11,23,01,24,2.70
2008,11,23,01,25,2.70
2008,11,23,01,26,2.70
2008,11,23,01,27,2.70
2008,11,23,01,28,2.70
2008,11,23,01,29,2.70
2008,11,23,01,30,2.70
2008,11,23,01,31,2.70
2008,11,23,01,32,2.70
2008,11,23,01,33,2.60
2008,11,23,01,34,2.60
2008,11,23,01,35,2.60
2008,11,23,01,36,2.60
2008,11,23,01,37,2.60
2008,11,23,01,38,2.60
2008,11,23,01,39,2.60
2008,11,23,01,40,2.60
2008,11,23,01,41,2.70
2008,11,23,01,42,2.70
2008,11,23,01,43,2.70
2008,11,23,01,44,2.70
2008,11,23,01,45,2.70
2008,11,23,01,46,2.70
2008,11,23,01,47,2.70
2008,11,23,01,48,2.70
2008,11,23,01,49,2.70
2008,11,23,01,50,2.80
2008,11,23,01,51,2.80
2008,11,23,01,52,2.80
2008,11,23,01,53,2.90
2008,11,23,01,54,2.90
2008,11,23,01,55,2.90
2008,11,23,01,56,3.00
2008,11,23,01,57,3.10
2008,11,23,01,58,3.10
2008,11,23,01,59,3.10
2008,11,23,02,00,3.10
2008,11,23,02,01,3.10
2008,11,23,02,02,3.10
2008,11,23,02,03,3.10
2008,11,23,02,04,3.20
2008,11,23,02,05,3.20
2008,11,23,02,06,3.20
2008,11,23,02,07,3.20
2008,11,23,02,08,3.20
2008,11,23,02,09,3.20
2008,11,23,02,10,3.20
2008,11,23,02,11,3.20
2008,11,23,02,12,3.20
2008,11,23,02,13,3.20
2008,11,23,02,14,3.20
2008,11,23,02,15,3.20
2008,11,23,02,16,3.20
2008,11,23,02,17,3.20
2008,11,23,02,18,3.20
2008,11,23,02,19,3.20
2008,11,23,02,20,3.10
2008,11,23,02,21,3.20
2008,11,23,02,22,3.20
2008,11,23,02,23,3.20
2008,11,23,02,24,3.30
2008,11,23,02,25,3.30
2008,11,23,02,26,3.30
2008,11,23,02,27,3.30
2008,11,23,02,28,3.30
2008,11,23,02,29,3.30
2008,11,23,02,30,3.30
2008,11,23,02,31,3.30
2008,11,23,02,32,3.30
2008,11,23,02,33,3.30
2008,11,23,02,34,3.30
2008,11,23,02,35,3.40
2008,11,23,02,36,3.40
2008,11,23,02,37,3.40
2008,11,23,02,38,3.40
2008,11,23,02,39,3.40
2008,11,23,02,40,3.50
2008,11,23,02,41,3.50
2008,11,23,02,42,3.50
2008,11,23,02,43,3.50
2008,11,23,02,44,3.50
2008,11,23,02,45,3.60
2008,11,23,02,46,3.50
2008,11,23,02,47,3.50
2008,11,23,02,48,3.50
2008,11,23,02,49,3.50
2008,11,23,02,50,3.50
2008,11,23,02,51,3.50
2008,11,23,02,52,3.50
2008,11,23,02,53,3.50
2008,11,23,02,54,3.50
2008,11,23,02,55,3.50
2008,11,23,02,56,3.50
2008,11,23,02,57,3.50
2008,11,23,02,58,3.50
2008,11,23,02,59,3.60
2008,11,23,03,00,3.60
2008,11,23,03,01,3.60
2008,11,23,03,02,3.60
2008,11,23,03,03,3.60
2008,11,23,03,04,3.60
2008,11,23,03,05,3.60
2008,11,23,03,06,3.60
2008,11,23,03,07,3.70
2008,11,23,03,08,3.70
2008,11,23,03,09,3.70
2008,11,23,03,10,3.70
2008,11,23,03,11,3.70
2008,11,23,03,12,3.70
2008,11,23,03,13,3.70
2008,11,23,03,14,3.70
2008,11,23,03,15,3.70
2008,11,23,03,16,3.70
2008,11,23,03,17,3.70
2008,11,23,03,18,3.70
2008,11,23,03,19,3.80
2008,11,23,03,20,3.80
2008,11,23,03,21,3.80
2008,11,23,03,22,3.80
2008,11,23,03,23,3.80
2008,11,23,03,24,3.80
2008,11,23,03,25,3.80
2008,11,23,03,26,3.80
2008,11,23,03,27,3.80
2008,11,23,03,28,3.80
2008,11,23,03,29,3.80
2008,11,23,03,30,3.80
2008,11,23,03,31,3.80
2008,11,23,03,32,3.80
2008,11,23,03,33,3.80
2008,11,23,03,34,3.80
2008,11,23,03,35,3.90
2008,11,23,03,36,3.90
2008,11,23,03,37,3.90
2008,11,23,03,38,3.90
2008,11,23,03,39,4.00
2008,11,23,03,40,4.00
2008,11,23,03,41,4.00
2008,11,23,03,42,4.00
2008,11,23,03,43,4.10
2008,11,23,03,44,4.10
2008,11,23,03,45,4.20
2008,11,23,03,46,4.20
2008,11,23,03,47,4.20
2008,11,23,03,48,4.20
2008,11,23,03,49,4.20
2008,11,23,03,50,4.20
2008,11,23,03,51,4.20
2008,11,23,03,52,4.20
2008,11,23,03,53,4.20
2008,11,23,03,54,4.20
2008,11,23,03,55,4.30
2008,11,23,03,56,4.30
2008,11,23,03,57,4.40
2008,11,23,03,58,4.40
2008,11,23,03,59,4.40
2008,11,23,04,00,4.40
2008,11,23,04,01,4.40
2008,11,23,04,02,4.50
2008,11,23,04,03,4.50
2008,11,23,04,04,4.50
2008,11,23,04,05,4.50
2008,11,23,04,06,4.50
2008,11,23,04,07,4.50
2008,11,23,04,08,4.50
2008,11,23,04,09,4.50
2008,11,23,04,10,4.60
2008,11,23,04,11,4.60
2008,11,23,04,12,4.60
2008,11,23,04,13,4.60
2008,11,23,04,14,4.60
2008,11,23,04,15,4.60
2008,11,23,04,16,4.60
2008,11,23,04,17,4.60
2008,11,23,04,18,4.60
2008,11,23,04,19,4.60
2008,11,23,04,20,4.60
2008,11,23,04,21,4.60
2008,11,23,04,22,4.60
2008,11,23,04,23,4.60
2008,11,23,04,24,4.60
2008,11,23,04,25,4.60
2008,11,23,04,26,4.70
2008,11,23,04,27,4.70
2008,11,23,04,28,4.70
2008,11,23,04,29,4.70
2008,11,23,04,30,4.70
2008,11,23,04,31,4.70
2008,11,23,04,32,4.70
2008,11,23,04,33,4.70
2008,11,23,04,34,4.70
2008,11,23,04,35,4.70
2008,11,23,04,36,4.60
2008,11,23,04,37,4.60
2008,11,23,04,38,4.60
2008,11,23,04,39,4.60
2008,11,23,04,40,4.60
2008,11,23,04,41,4.60
2008,11,23,04,42,4.60
2008,11,23,04,43,4.60
2008,11,23,04,44,4.60
2008,11,23,04,45,4.60
2008,11,23,04,46,4.60
2008,11,23,04,47,4.60
2008,11,23,04,48,4.60
2008,11,23,04,49,4.60
2008,11,23,04,50,4.60
2008,11,23,04,51,4.60
2008,11,23,04,52,4.60
2008,11,23,04,53,4.60
2008,11,23,04,54,4.60
2008,11,23,04,55,4.60
2008,11,23,04,56,4.60
2008,11,23,04,57,4.60
2008,11,23,04,58,4.60
2008,11,23,04,59,4.60
2008,11,23,05,00,4.60
2008,11,23,05,01,4.60
2008,11,23,05,02,4.60
2008,11,23,05,03,4.60
2008,11,23,05,04,4.60
2008,11,23,05,05,4.60
2008,11,23,05,06,4.70
2008,11,23,05,07,4.70
2008,11,23,05,08,4.70
2008,11,23,05,09,4.70
2008,11,23,05,10,4.70
2008,11,23,05,11,4.70
2008,11,23,05,12,4.80
2008,11,23,05,13,4.80
2008,11,23,05,14,4.80
2008,11,23,05,15,4.80
2008,11,23,05,16,4.80
2008,11,23,05,17,4.80
2008,11,23,05,18,4.80
2008,11,23,05,19,4.80
2008,11,23,05,20,4.80
2008,11,23,05,21,4.90
2008,11,23,05,22,4.90
2008,11,23,05,23,4.90
2008,11,23,05,24,4.90
2008,11,23,05,25,4.90
2008,11,23,05,26,4.90
2008,11,23,05,27,4.90
2008,11,23,05,28,4.90
2008,11,23,05,29,4.90
2008,11,23,05,30,4.90
2008,11,23,05,31,4.90
2008,11,23,05,32,4.90
2008,11,23,05,33,4.90
2008,11,23,05,34,4.90
2008,11,23,05,35,4.90
2008,11,23,05,36,4.90
2008,11,23,05,37,4.90
2008,11,23,05,38,4.90
2008,11,23,05,39,4.90
2008,11,23,05,40,4.90
2008,11,23,05,41,4.90
2008,11,23,05,42,4.90
2008,11,23,05,43,4.90
2008,11,23,05,44,4.90
2008,11,23,05,45,4.90
2008,11,23,05,46,4.90
2008,11,23,05,47,4.90
2008,11,23,05,48,4.90
2008,11,23,05,49,4.90
2008,11,23,05,50,4.90
2008,11,23,05,51,4.90
2008,11,23,05,52,4.90
2008,11,23,05,53,4.90
2008,11,23,05,54,4.90
2008,11,23,05,55,4.90
2008,11,23,05,56,4.90
2008,11,23,05,57,4.90
2008,11,23,05,58,4.90
2008,11,23,05,59,4.90
2008,11,23,06,00,4.90
2008,11,23,06,01,4.90
2008,11,23,06,02,4.90
2008,11,23,06,03,4.90
2008,11,23,06,04,4.90
2008,11,23,06,05,4.90
2008,11,23,06,06,4.90
2008,11,23,06,07,4.90
2008,11,23,06,08,4.90
2008,11,23,06,09,4.90
2008,11,23,06,10,5.10
2008,11,23,06,11,5.10
2008,11,23,06,12,5.10
2008,11,23,06,13,5.10
2008,11,23,06,14,5.10
2008,11,23,06,15,5.10
2008,11,23,06,16,5.10
2008,11,23,06,17,5.10
2008,11,23,06,18,5.10
2008,11,23,06,19,5.10
2008,11,23,06,20,5.10
2008,11,23,06,21,5.10
2008,11,23,06,22,5.10
2008,11,23,06,23,5.10
2008,11,23,06,24,5.10
2008,11,23,06,25,5.10
2008,11,23,06,26,5.10
2008,11,23,06,27,5.10
2008,11,23,06,28,5.10
2008,11,23,06,29,5.10
2008,11,23,06,30,5.10
2008,11,23,06,31,5.10
2008,11,23,06,32,5.10
2008,11,23,06,33,5.10
2008,11,23,06,34,5.10
2008,11,23,06,35,5.10
2008,11,23,06,36,5.10
2008,11,23,06,37,5.10
2008,11,23,06,38,5.10
2008,11,23,06,39,5.10
2008,11,23,06,40,5.10
2008,11,23,06,41,5.10
2008,11,23,06,42,5.10
2008,11,23,06,43,5.10
2008,11,23,06,44,5.10
2008,11,23,06,45,5.10
2008,11,23,06,46,5.10
2008,11,23,06,47,5.00
2008,11,23,06,48,4.90
2008,11,23,06,49,4.90
2008,11,23,06,50,4.90
2008,11,23,06,51,4.90
2008,11,23,06,52,4.90
2008,11,23,06,53,4.80
2008,11,23,06,54,4.80
2008,11,23,06,55,4.80
2008,11,23,06,56,4.70
2008,11,23,06,57,4.70
2008,11,23,06,58,4.60
2008,11,23,06,59,4.60
2008,11,23,07,00,4.60
2008,11,23,07,01,4.60
2008,11,23,07,02,4.60
2008,11,23,07,03,4.60
2008,11,23,07,04,4.60
2008,11,23,07,05,4.60
2008,11,23,07,06,4.60
2008,11,23,07,07,4.50
2008,11,23,07,08,4.50
2008,11,23,07,09,4.50
2008,11,23,07,10,4.50
2008,11,23,07,11,4.50
2008,11,23,07,12,4.50
2008,11,23,07,13,4.50
2008,11,23,07,14,4.50
2008,11,23,07,15,4.40
2008,11,23,07,16,4.40
2008,11,23,07,17,4.40
2008,11,23,07,18,4.40
2008,11,23,07,19,4.40
2008,11,23,07,20,4.40
2008,11,23,07,21,4.30
2008,11,23,07,22,4.30
2008,11,23,07,23,4.30
2008,11,23,07,24,4.30
2008,11,23,07,25,4.30
2008,11,23,07,26,4.30
2008,11,23,07,27,4.30
2008,11,23,07,28,4.30
2008,11,23,07,29,4.20
2008,11,23,07,30,4.20
2008,11,23,07,31,4.20
2008,11,23,07,32,4.20
2008,11,23,07,33,4.20
2008,11,23,07,34,4.20
2008,11,23,07,35,4.20
2008,11,23,07,36,4.20
2008,11,23,07,37,4.30
2008,11,23,07,38,4.30
2008,11,23,07,39,4.30
2008,11,23,07,40,4.20
2008,11,23,07,41,4.20
2008,11,23,07,42,4.20
2008,11,23,07,43,4.20
2008,11,23,07,44,4.20
2008,11,23,07,45,4.20
2008,11,23,07,46,4.20
2008,11,23,07,47,4.20
2008,11,23,07,48,4.20
2008,11,23,07,49,4.20
2008,11,23,07,50,4.10
2008,11,23,07,51,4.10
2008,11,23,07,52,4.10
2008,11,23,07,53,4.10
2008,11,23,07,54,4.00
2008,11,23,07,55,4.00
2008,11,23,07,56,4.00
2008,11,23,07,57,4.00
2008,11,23,07,58,4.00
2008,11,23,07,59,4.00
2008,11,23,08,00,4.00
2008,11,23,08,01,4.00
2008,11,23,08,02,3.90
2008,11,23,08,03,3.90
2008,11,23,08,04,3.90
2008,11,23,08,05,3.90
2008,11,23,08,06,3.90
2008,11,23,08,07,3.80
2008,11,23,08,08,3.80
2008,11,23,08,09,3.80
2008,11,23,08,10,3.80
2008,11,23,08,11,3.80
2008,11,23,08,12,3.70
2008,11,23,08,13,3.70
2008,11,23,08,14,3.70
2008,11,23,08,15,3.70
2008,11,23,08,16,3.70
2008,11,23,08,17,3.60
2008,11,23,08,18,3.60
2008,11,23,08,19,3.60
2008,11,23,08,20,3.60
2008,11,23,08,21,3.60
2008,11,23,08,22,3.70
2008,11,23,08,23,3.70
2008,11,23,08,24,3.80
2008,11,23,08,25,3.80
2008,11,23,08,26,3.80
2008,11,23,08,27,3.90
2008,11,23,08,28,3.90
2008,11,23,08,29,4.00
2008,11,23,08,30,4.00
2008,11,23,08,31,4.10
2008,11,23,08,32,4.10
2008,11,23,08,33,4.10
2008,11,23,08,34,4.20
2008,11,23,08,35,4.20
2008,11,23,08,36,4.20
2008,11,23,08,37,4.20
2008,11,23,08,38,4.20
2008,11,23,08,39,4.30
2008,11,23,08,40,4.30
2008,11,23,08,41,4.40
2008,11,23,08,42,4.40
2008,11,23,08,43,4.50
2008,11,23,08,44,4.50
2008,11,23,08,45,4.60
2008,11,23,08,46,4.60
2008,11,23,08,47,4.60
2008,11,23,08,48,4.60
2008,11,23,08,49,4.70
2008,11,23,08,50,4.70
2008,11,23,08,51,4.80
2008,11,23,08,52,4.80
2008,11,23,08,53,4.80
2008,11,23,08,54,4.90
2008,11,23,08,55,4.90
2008,11,23,08,56,4.90
2008,11,23,08,57,4.90
2008,11,23,08,58,4.90
2008,11,23,08,59,5.00
2008,11,23,09,00,5.10
2008,11,23,09,01,5.10
2008,11,23,09,02,5.10
2008,11,23,09,03,5.10
2008,11,23,09,04,5.20
2008,11,23,09,05,5.20
2008,11,23,09,06,5.20
2008,11,23,09,07,5.30
2008,11,23,09,08,5.30
2008,11,23,09,09,5.30
2008,11,23,09,10,5.40
2008,11,23,09,11,5.40
2008,11,23,09,12,5.50
2008,11,23,09,13,5.50
2008,11,23,09,14,5.60
2008,11,23,09,15,5.60
2008,11,23,09,16,5.70
2008,11,23,09,17,5.70
2008,11,23,09,18,5.70
2008,11,23,09,19,5.70
2008,11,23,09,20,5.80
2008,11,23,09,21,5.80
2008,11,23,09,22,5.80
2008,11,23,09,23,5.90
2008,11,23,09,24,5.90
2008,11,23,09,25,5.90
2008,11,23,09,26,5.90
2008,11,23,09,27,5.90
2008,11,23,09,28,6.00
2008,11,23,09,29,6.00
2008,11,23,09,30,6.00
2008,11,23,09,31,6.00
2008,11,23,09,32,6.00
2008,11,23,09,33,6.00
2008,11,23,09,34,6.00
2008,11,23,09,35,6.00
2008,11,23,09,36,6.10
2008,11,23,09,37,6.10
2008,11,23,09,38,6.10
2008,11,23,09,39,6.10
2008,11,23,09,40,6.20
2008,11,23,09,41,6.20
2008,11,23,09,42,6.20
2008,11,23,09,43,6.20
2008,11,23,09,44,6.20
2008,11,23,09,45,6.20
2008,11,23,09,46,6.20
2008,11,23,09,47,6.20
2008,11,23,09,48,6.20
2008,11,23,09,49,6.20
2008,11,23,09,50,6.20
2008,11,23,09,51,6.20
2008,11,23,09,52,6.20
2008,11,23,09,53,6.20
2008,11,23,09,54,6.20
2008,11,23,09,55,6.20
2008,11,23,09,56,6.30
2008,11,23,09,57,6.30
2008,11,23,09,58,6.30
2008,11,23,09,59,6.30
2008,11,23,10,00,6.30
2008,11,23,10,01,6.30
2008,11,23,10,02,6.30
2008,11,23,10,03,6.30
2008,11,23,10,04,6.20
2008,11,23,10,05,6.20
2008,11,23,10,06,6.20
2008,11,23,10,07,6.20
2008,11,23,10,08,6.20
2008,11,23,10,09,6.20
2008,11,23,10,10,6.20
2008,11,23,10,11,6.20
2008,11,23,10,12,6.20
2008,11,23,10,13,6.20
2008,11,23,10,14,6.20
2008,11,23,10,15,6.20
2008,11,23,10,16,6.20
2008,11,23,10,17,6.20
2008,11,23,10,18,6.20
2008,11,23,10,19,6.20
2008,11,23,10,20,6.20
2008,11,23,10,21,6.20
2008,11,23,10,22,6.20
2008,11,23,10,23,6.10
2008,11,23,10,24,6.10
2008,11,23,10,25,6.10
2008,11,23,10,26,6.10
2008,11,23,10,27,6.10
2008,11,23,10,28,6.10
2008,11,23,10,29,6.10
2008,11,23,10,30,6.10
2008,11,23,10,31,6.10
2008,11,23,10,32,6.20
2008,11,23,10,33,6.20
2008,11,23,10,34,6.20
2008,11,23,10,35,6.20
2008,11,23,10,36,6.20
2008,11,23,10,37,6.30
2008,11,23,10,38,6.30
2008,11,23,10,39,6.30
2008,11,23,10,40,6.40
2008,11,23,10,41,6.40
2008,11,23,10,42,6.40
2008,11,23,10,43,6.40
2008,11,23,10,44,6.40
2008,11,23,10,45,6.40
2008,11,23,10,46,6.40
2008,11,23,10,47,6.40
2008,11,23,10,48,6.40
2008,11,23,10,49,6.40
2008,11,23,10,50,6.40
2008,11,23,10,51,6.40
2008,11,23,10,52,6.40
2008,11,23,10,53,6.40
2008,11,23,10,54,6.40
2008,11,23,10,55,6.40
2008,11,23,10,56,6.40
2008,11,23,10,57,6.40
2008,11,23,10,58,6.40
2008,11,23,10,59,6.40
2008,11,23,11,00,6.40
2008,11,23,11,01,6.40
2008,11,23,11,02,6.60
2008,11,23,11,03,6.60
2008,11,23,11,04,6.60
2008,11,23,11,05,6.60
2008,11,23,11,06,6.60
2008,11,23,11,07,6.60
2008,11,23,11,08,6.70
2008,11,23,11,09,6.70
2008,11,23,11,10,6.70
2008,11,23,11,11,6.80
2008,11,23,11,12,6.80
2008,11,23,11,13,6.80
2008,11,23,11,14,6.80
2008,11,23,11,15,6.80
2008,11,23,11,16,6.80
2008,11,23,11,17,6.80
2008,11,23,11,18,6.80
2008,11,23,11,19,6.80
2008,11,23,11,20,6.90
2008,11,23,11,21,6.90
2008,11,23,11,22,6.90
2008,11,23,11,23,6.90
2008,11,23,11,24,7.00
2008,11,23,11,25,7.00
2008,11,23,11,26,7.00
2008,11,23,11,27,7.10
2008,11,23,11,28,7.20
2008,11,23,11,29,7.20
2008,11,23,11,30,7.20
2008,11,23,11,31,7.30
2008,11,23,11,32,7.20
2008,11,23,11,33,7.20
2008,11,23,11,34,7.20
2008,11,23,11,35,7.20
2008,11,23,11,36,7.20
2008,11,23,11,37,7.20
2008,11,23,11,38,7.20
2008,11,23,11,39,7.20
2008,11,23,11,40,7.10
2008,11,23,11,41,7.10
2008,11,23,11,42,7.10
2008,11,23,11,43,7.20
2008,11,23,11,44,7.20
2008,11,23,11,45,7.20
2008,11,23,11,46,7.30
2008,11,23,11,47,7.30
2008,11,23,11,48,7.30
2008,11,23,11,49,7.30
2008,11,23,11,50,7.30
2008,11,23,11,51,7.30
2008,11,23,11,52,7.30
2008,11,23,11,53,7.30
2008,11,23,11,54,7.30
2008,11,23,11,55,7.30
2008,11,23,11,56,7.30
2008,11,23,11,57,7.30
2008,11,23,11,58,7.30
2008,11,23,11,59,7.30
2008,11,23,12,00,7.30
2008,11,23,12,01,7.30
2008,11,23,12,02,7.40
2008,11,23,12,03,7.40
2008,11,23,12,04,7.40
2008,11,23,12,05,7.40
2008,11,23,12,06,7.40
2008,11,23,12,07,7.40
2008,11,23,12,08,7.40
2008,11,23,12,09,7.40
2008,11,23,12,10,7.30
2008,11,23,12,11,7.30
2008,11,23,12,12,7.30
2008,11,23,12,13,7.30
2008,11,23,12,14,7.30
2008,11,23,12,15,7.20
2008,11,23,12,16,7.20
2008,11,23,12,17,7.20
2008,11,23,12,18,7.20
2008,11,23,12,19,7.20
2008,11,23,12,20,7.20
2008,11,23,12,21,7.10
2008,11,23,12,22,7.20
2008,11,23,12,23,7.20
2008,11,23,12,24,7.20
2008,11,23,12,25,7.20
2008,11,23,12,26,7.20
2008,11,23,12,27,7.20
2008,11,23,12,28,7.20
2008,11,23,12,29,7.30
2008,11,23,12,30,7.30
2008,11,23,12,31,7.30
2008,11,23,12,32,7.30
2008,11,23,12,33,7.30
2008,11,23,12,34,7.30
2008,11,23,12,35,7.30
2008,11,23,12,36,7.30
2008,11,23,12,37,7.30
2008,11,23,12,38,7.30
2008,11,23,12,39,7.30
2008,11,23,12,40,7.30
2008,11,23,12,41,7.30
2008,11,23,12,42,7.30
2008,11,23,12,43,7.30
2008,11,23,12,44,7.30
2008,11,23,12,45,7.30
2008,11,23,12,46,7.30
2008,11,23,12,47,7.30
2008,11,23,12,48,7.30
2008,11,23,12,49,7.30
2008,11,23,12,50,7.30
2008,11,23,12,51,7.30
2008,11,23,12,52,7.30
2008,11,23,12,53,7.30
2008,11,23,12,54,7.30
2008,11,23,12,55,7.30
2008,11,23,12,56,7.30
2008,11,23,12,57,7.30
2008,11,23,12,58,7.30
2008,11,23,12,59,7.30
2008,11,23,13,00,7.30
2008,11,23,13,01,7.30
2008,11,23,13,02,7.30
2008,11,23,13,03,7.30
2008,11,23,13,04,7.30
2008,11,23,13,05,7.30
2008,11,23,13,06,7.30
2008,11,23,13,07,7.30
2008,11,23,13,08,7.30
2008,11,23,13,09,7.30
2008,11,23,13,10,7.30
2008,11,23,13,11,7.30
2008,11,23,13,12,7.30
2008,11,23,13,13,7.40
2008,11,23,13,14,7.40
2008,11,23,13,15,7.40
2008,11,23,13,16,7.40
2008,11,23,13,17,7.50
2008,11,23,13,18,7.50
2008,11,23,13,19,7.60
2008,11,23,13,20,7.60
2008,11,23,13,21,7.60
2008,11,23,13,22,7.70
2008,11,23,13,23,7.80
2008,11,23,13,24,7.80
2008,11,23,13,25,7.80
2008,11,23,13,26,7.90
2008,11,23,13,27,7.90
2008,11,23,13,28,7.90
2008,11,23,13,29,7.90
2008,11,23,13,30,7.90
2008,11,23,13,31,7.90
2008,11,23,13,32,7.90
2008,11,23,13,33,7.90
2008,11,23,13,34,8.00
2008,11,23,13,35,8.00
2008,11,23,13,36,7.90
2008,11,23,13,37,7.90
2008,11,23,13,38,8.00
2008,11,23,13,39,8.00
2008,11,23,13,40,8.00
2008,11,23,13,41,8.00
2008,11,23,13,42,7.90
2008,11,23,13,43,7.90
2008,11,23,13,44,7.90
2008,11,23,13,45,7.90
2008,11,23,13,46,7.90
2008,11,23,13,47,7.90
2008,11,23,13,48,7.90
2008,11,23,13,49,7.90
2008,11,23,13,50,7.90
2008,11,23,13,51,7.90
2008,11,23,13,52,7.90
2008,11,23,13,53,7.90
2008,11,23,13,54,7.90
2008,11,23,13,55,7.90
2008,11,23,13,56,7.90
2008,11,23,13,57,7.90
2008,11,23,13,58,7.90
2008,11,23,13,59,7.90
2008,11,23,14,00,7.90
2008,11,23,14,01,7.80
2008,11,23,14,02,7.80
2008,11,23,14,03,7.80
2008,11,23,14,04,7.80
2008,11,23,14,05,7.70
2008,11,23,14,06,7.70
2008,11,23,14,07,7.60
2008,11,23,14,08,7.60
2008,11,23,14,09,7.60
2008,11,23,14,10,7.60
2008,11,23,14,11,7.60
2008,11,23,14,12,7.60
2008,11,23,14,13,7.60
2008,11,23,14,14,7.60
2008,11,23,14,15,7.60
2008,11,23,14,16,7.60
2008,11,23,14,17,7.60
2008,11,23,14,18,7.50
2008,11,23,14,19,7.50
2008,11,23,14,20,7.50
2008,11,23,14,21,7.50
2008,11,23,14,22,7.50
2008,11,23,14,23,7.50
2008,11,23,14,24,7.50
2008,11,23,14,25,7.50
2008,11,23,14,26,7.50
2008,11,23,14,27,7.50
2008,11,23,14,28,7.60
2008,11,23,14,29,7.60
2008,11,23,14,30,7.60
2008,11,23,14,31,7.60
2008,11,23,14,32,7.70
2008,11,23,14,33,7.70
2008,11,23,14,34,7.70
2008,11,23,14,35,7.70
2008,11,23,14,36,7.80
2008,11,23,14,37,7.80
2008,11,23,14,38,7.80
2008,11,23,14,39,7.80
2008,11,23,14,40,7.80
2008,11,23,14,41,7.80
2008,11,23,14,42,7.80
2008,11,23,14,43,7.80
2008,11,23,14,44,7.80
2008,11,23,14,45,7.80
2008,11,23,14,46,7.70
2008,11,23,14,47,7.70
2008,11,23,14,48,7.70
2008,11,23,14,49,7.70
2008,11,23,14,50,7.70
2008,11,23,14,51,7.70
2008,11,23,14,52,7.70
2008,11,23,14,53,7.70
2008,11,23,14,54,7.70
2008,11,23,14,55,7.70
2008,11,23,14,56,7.70
2008,11,23,14,57,7.70
2008,11,23,14,58,7.70
2008,11,23,14,59,7.70
2008,11,23,15,00,7.70
2008,11,23,15,01,7.70
2008,11,23,15,02,7.70
2008,11,23,15,03,7.60
2008,11,23,15,04,7.60
2008,11,23,15,05,7.60
2008,11,23,15,06,7.60
2008,11,23,15,07,7.60
2008,11,23,15,08,7.50
2008,11,23,15,09,7.50
2008,11,23,15,10,7.50
2008,11,23,15,11,7.50
2008,11,23,15,12,7.50
2008,11,23,15,13,7.40
2008,11,23,15,14,7.40
2008,11,23,15,15,7.40
2008,11,23,15,16,7.40
2008,11,23,15,17,7.40
2008,11,23,15,18,7.40
2008,11,23,15,19,7.40
2008,11,23,15,20,7.40
2008,11,23,15,21,7.30
2008,11,23,15,22,7.30
2008,11,23,15,23,7.30
2008,11,23,15,24,7.30
2008,11,23,15,25,7.30
2008,11,23,15,26,7.30
2008,11,23,15,27,7.30
2008,11,23,15,28,7.30
2008,11,23,15,29,7.30
2008,11,23,15,30,7.30
2008,11,23,15,31,7.30
2008,11,23,15,32,7.30
2008,11,23,15,33,7.30
2008,11,23,15,34,7.30
2008,11,23,15,35,7.30
2008,11,23,15,36,7.30
2008,11,23,15,37,7.30
2008,11,23,15,38,7.20
2008,11,23,15,39,7.20
2008,11,23,15,40,7.20
2008,11,23,15,41,7.20
2008,11,23,15,42,7.20
2008,11,23,15,43,7.20
2008,11,23,15,44,7.20
2008,11,23,15,45,7.10
2008,11,23,15,46,7.10
2008,11,23,15,47,7.10
2008,11,23,15,48,7.10
2008,11,23,15,49,7.10
2008,11,23,15,50,7.00
2008,11,23,15,51,7.00
2008,11,23,15,52,7.00
2008,11,23,15,53,7.00
2008,11,23,15,54,6.90
2008,11,23,15,55,6.90
2008,11,23,15,56,6.90
2008,11,23,15,57,6.90
2008,11,23,15,58,6.90
2008,11,23,15,59,6.90
2008,11,23,16,00,6.80
2008,11,23,16,01,6.80
2008,11,23,16,02,6.80
2008,11,23,16,03,6.80
2008,11,23,16,04,6.80
2008,11,23,16,05,6.80
2008,11,23,16,06,6.80
2008,11,23,16,07,6.80
2008,11,23,16,08,6.80
2008,11,23,16,09,6.70
2008,11,23,16,10,6.70
2008,11,23,16,11,6.70
2008,11,23,16,12,6.70
2008,11,23,16,13,6.70
2008,11,23,16,14,6.70
2008,11,23,16,15,6.70
2008,11,23,16,16,6.70
2008,11,23,16,17,6.70
2008,11,23,16,18,6.60
2008,11,23,16,19,6.60
2008,11,23,16,20,6.60
2008,11,23,16,21,6.60
2008,11,23,16,22,6.60
2008,11,23,16,23,6.60
2008,11,23,16,24,6.60
2008,11,23,16,25,6.60
2008,11,23,16,26,6.60
2008,11,23,16,27,6.60
2008,11,23,16,28,6.60
2008,11,23,16,29,6.60
2008,11,23,16,30,6.60
2008,11,23,16,31,6.60
2008,11,23,16,32,6.60
2008,11,23,16,33,6.60
2008,11,23,16,34,6.60
2008,11,23,16,35,6.60
2008,11,23,16,36,6.60
2008,11,23,16,37,6.60
2008,11,23,16,38,6.60
2008,11,23,16,39,6.60
2008,11,23,16,40,6.60
2008,11,23,16,41,6.60
2008,11,23,16,42,6.60
2008,11,23,16,43,6.60
2008,11,23,16,44,6.60
2008,11,23,16,45,6.60
2008,11,23,16,46,6.60
2008,11,23,16,47,6.60
2008,11,23,16,48,6.50
2008,11,23,16,49,6.50
2008,11,23,16,50,6.50
2008,11,23,16,51,6.50
2008,11,23,16,52,6.50
2008,11,23,16,53,6.40
2008,11,23,16,54,6.40
2008,11,23,16,55,6.40
2008,11,23,16,56,6.40
2008,11,23,16,57,6.40
2008,11,23,16,58,6.40
2008,11,23,16,59,6.40
2008,11,23,17,00,6.40
2008,11,23,17,01,6.40
2008,11,23,17,02,6.40
2008,11,23,17,03,6.40
2008,11,23,17,04,6.40
2008,11,23,17,05,6.40
2008,11,23,17,06,6.40
2008,11,23,17,07,6.40
2008,11,23,17,08,6.40
2008,11,23,17,09,6.40
2008,11,23,17,10,6.40
2008,11,23,17,11,6.40
2008,11,23,17,12,6.40
2008,11,23,17,13,6.40
2008,11,23,17,14,6.40
2008,11,23,17,15,6.40
2008,11,23,17,16,6.30
2008,11,23,17,17,6.30
2008,11,23,17,18,6.30
2008,11,23,17,19,6.30
2008,11,23,17,20,6.30
2008,11,23,17,21,6.30
2008,11,23,17,22,6.30
2008,11,23,17,23,6.30
2008,11,23,17,24,6.30
2008,11,23,17,25,6.30
2008,11,23,17,26,6.30
2008,11,23,17,27,6.30
2008,11,23,17,28,6.30
2008,11,23,17,29,6.30
2008,11,23,17,30,6.30
2008,11,23,17,31,6.30
2008,11,23,17,32,6.30
2008,11,23,17,33,6.30
2008,11,23,17,34,6.30
2008,11,23,17,35,6.30
2008,11,23,17,36,6.30
2008,11,23,17,37,6.30
2008,11,23,17,38,6.30
2008,11,23,17,39,6.30
2008,11,23,17,40,6.30
2008,11,23,17,41,6.30
2008,11,23,17,42,6.30
2008,11,23,17,43,6.30
2008,11,23,17,44,6.30
2008,11,23,17,45,6.30
2008,11,23,17,46,6.30
2008,11,23,17,47,6.20
2008,11,23,17,48,6.20
2008,11,23,17,49,6.20
2008,11,23,17,50,6.20
2008,11,23,17,51,6.20
2008,11,23,17,52,6.20
2008,11,23,17,53,6.20
2008,11,23,17,54,6.20
2008,11,23,17,55,6.20
2008,11,23,17,56,6.20
2008,11,23,17,57,6.20
2008,11,23,17,58,6.20
2008,11,23,17,59,6.20
2008,11,23,18,00,6.20
2008,11,23,18,01,6.20
2008,11,23,18,02,6.20
2008,11,23,18,03,6.20
2008,11,23,18,04,6.20
2008,11,23,18,05,6.20
2008,11,23,18,06,6.20